Retour au catalogue

YAMAL 202

ActifCommunicationsGEO
NORAD 28089·PAYLOAD·🇷🇺 Russia

Lancé Nov 24, 2003 depuis Baikonur Cosmodrome

Loading…

TLE

FraisSource: Space-Track

Époque: Sep 14, 2026, 18:00 UTC

1 28089U 03053A   26257.75005416 -.00000086  00000-0  00000-0 0  9993
2 28089   6.5620  69.8141 0004399 115.5644 241.9273  1.00271466 83598

Suivez YAMAL 202 en temps réel avec AllMySat

Download on the App Store